Powrót do katalogu

CZ-4B R/B

AktywnySSO
NORAD 27432·ROCKET BODY·🇨🇳 China

Wystrzelony May 15, 2002 z Taiyuan Satellite Launch Center

Loading…

Następne Przeloty (najbliższe 24 godziny)

TLE

ŚwieżeSource: Space-Track

Epoka: Sep 14, 2026, 03:26 UTC

1 27432U 02024C   26257.14345017  .00000019  00000-0  32529-4 0  9998
2 27432  98.8612 309.3492 0049698 206.4614 176.8985 14.14575159255887

Śledź CZ-4B R/B w czasie rzeczywistym z AllMySat

Download on the App Store